weather.gov     
National Weather Service

Regional Weather Roundup
NWS Homepage
This page is being discontinued on March 12, 2014.
The same data is available at this site. Please update your bookmarks.
Thank you, and we apologize for the inconvenience.
Please send an email to SR-SRH.Webmaster@noaa.gov with any concerns.


Current Version
Previous Version:    01  02  03  04  05  06  07  08  09  10  11  12  13  14  15  16  17  18  19  20  21  22  23  24  25  26  27  28  29  30  
   31  32  33  34  35  36  37  38  39  40  41  42  43  44  45  46  47  48  49  50  51  52  53  
[Printable]
097
ASUS43 KGLD 260408
RWRGLD

GOODLAND FORECAST AREA HOURLY WEATHER ROUNDUP
NATIONAL WEATHER SERVICE GOODLAND KS
1000 PM MDT SAT OCT 25 2014

...OFFICIAL OBSERVATIONS...

CITY           SKY/WX    TMP DP  RH WIND       PRES   REMARKS
GOODLAND KS    CLEAR     48  39  71 NW7       29.95F
HILL CITY KS   CLEAR     66  48  52 E5        29.92F
IMPERIAL NEB   CLEAR     56  49  77 E9        29.95F
MCCOOK NEB     CLEAR     60  53  77 E9        29.93F
AKRON CO       CLEAR     57  34  41 SE9       29.99F
BURLINGTON CO  CLEAR     51  36  56 W5        29.97F
LIMON CO       CLEAR     42  31  64 N5        30.04F
$$

...UNOFFICIAL OBSERVATIONS...

CITY           SKY/WX    TMP DP  RH WIND       PRES   REMARKS
COLBY KS       CLEAR     57  46  67 CALM      29.93F
NORTON KS      CLEAR     57  52  82 E7        29.92F
SHARON SPRINGS   N/A     58  43  58 S9          N/A
TRIBUNE KS     CLEAR     55  46  71 S9        29.95F
KIT CARSON CO    N/A     50  37  59 CALM        N/A
YUMA CO          N/A     47  34  61 CALM        N/A
$$




U.S. Dept. of Commerce
NOAA National Weather Service
1325 East West Highway
Silver Spring, MD 20910
E-mail: w-nws.webmaster@noaa.gov
Page last modified: May 16, 2007
NATIONAL WEATHER SERVICE: for Safety, for Work, for Fun - FOR LIFE